Flag for U.S.A. Weather past 2 weeks in Lakewood, New Jersey, U.S.A.

Now
38 °F

Passing clouds.


Feels Like: 33 °F
Forecast: 36 / 50 °F
Wind: 6 mph from East

Location: Lakehurst Naval Air Station


UV Index: 0 (Low)

Visibility: N/A


Pressure: 30.63 "Hg

Humidity: 73%

Dew point: 30 °F

Location of LakewoodLocation

Historic Weather in Lakewood

°F

Lakewood temperature yesterday

Maximum temperature yesterday: 48 °F (at 4:00 PM)
Minimum temperature yesterday: 29 °F (at 7:00 AM)
Average temperature yesterday: 37 °F

Past Weeks' High & Low Weather Summary

 TemperatureHumidityPressure
High82 °F (Apr 13, 2:00 PM)100% (Apr 5, 1:00 AM)30.71 "Hg (Apr 5, 1:00 AM)
Low27 °F (Apr 6, 6:00 AM)19% (Apr 12, 1:00 PM)29.44 "Hg (Apr 8, 1:36 PM)
Average51 °F65%30.02 "Hg
* Reported Apr 2 9:00 PM — Apr 17 8:00 PM, Lakewood, Weather by CustomWeather, © 2014

Note: Actual official high and low records may vary slightly from our data, if they occured in-between our weather recording intervals... More about our weather records

Advertising

Historic Weather Conditions — Data for Previous 24 hours

 ConditionsComfort  
Time TempWeatherWind HumidityBarometerVisibility
8:00 PM
Apr 17
39 °FPassing clouds.8 mph70%30.63 "HgN/A
7:00 PM41 °FSunny.10 mph60%30.63 "HgN/A
6:00 PM42 °FSunny.15 mph60%30.64 "HgN/A
5:00 PM44 °FPassing clouds.16 mph53%30.65 "HgN/A
4:00 PM44 °FPartly sunny.9 mph55%30.66 "HgN/A
3:00 PM44 °FOvercast.12 mph55%30.68 "HgN/A
1:00 PM43 °FOvercast.13 mph56%30.70 "HgN/A
12:00 PM43 °FPartly sunny.13 mph56%30.71 "HgN/A
11:00 AM44 °FPartly sunny.15 mph53%30.71 "HgN/A
9:00 AM42 °FSunny.18 mph51%30.68 "HgN/A
8:00 AM41 °FPassing clouds.14 mph60%30.65 "HgN/A
7:00 AM35 °FOvercast.5 mph75%30.64 "HgN/A
6:00 AM32 °FClear.No wind75%30.60 "HgN/A
5:00 AM33 °FClear.5 mph70%30.58 "HgN/A
4:00 AM31 °FClear.3 mph73%30.58 "HgN/A
3:00 AM31 °FClear.5 mph69%30.58 "HgN/A
2:00 AM31 °FClear.5 mph76%30.57 "HgN/A
1:00 AM28 °FClear.No wind93%30.57 "HgN/A
12:00 AM29 °FClear.No wind89%30.55 "HgN/A
11:00 PM
Apr 16
30 °FClear.No wind85%30.53 "HgN/A
10:00 PM30 °FClear.No wind85%30.52 "HgN/A
9:00 PM36 °FClear.No wind59%30.50 "HgN/A
Weather by CustomWeather, © 2014

See weather overview